Current Weather Conditions: station 63057

sailwx.info

Wind from 140 at 9 knots

Wave height 2.0 meters (6 feet), 7 second period

Air temperature 5.0° C
Visibility: greater than 10.8 NM
Dewpoint 1.6° C

Last reported at 2020-Feb-28 13:00 UTC.
Time now 2020-Feb-28 14:25 UTC

Location: N 59°12' E 001°30'.
View on Google Maps.

See reports from other nearby stations

  
Tides and Currents Weather Stations Pressure Air Temp Water Temp Dewpoint Dewpoint Depression Visibility Wind Speed Wind Dir Waves Ship Positions
date/time (UTC)wind fromknots sea level pressurealtimeterstation pressurevisibilityair tempwater tempwave heightnotes
2020-Feb-28 13:00 140 9 10.8 5.0 2.0
2020-Feb-28 12:00 180 5 2.2 4.1 2.1
2020-Feb-28 11:00 190 11 10.8 4.8 2.2
2020-Feb-28 10:00 220 11 10.8 5.5 2.2
2020-Feb-28 09:00 270 1 10.8 5.8 2.5
2020-Feb-28 08:00 270 6 10.8 5.6 2.6
2020-Feb-28 07:00 280 9 10.8 5.5 2.7
2020-Feb-28 06:00 280 13 10.8 5.4 3.2
2020-Feb-28 05:00 280 19 10.8 5.5 3.2
2020-Feb-28 04:00 280 24 10.8 5.5 3.4
2020-Feb-28 03:00 280 25 10.8 5.7 3.1
2020-Feb-28 02:00 280 24 10.8 5.6 3.1
2020-Feb-28 01:00 280 25 10.8 5.6 2.8
2020-Feb-28 00:00 290 20 10.8 5.5 2.7
2020-Feb-27 23:00 300 20 10.8 5.6 2.3
2020-Feb-27 22:00 280 13 10.8 5.4 2.4
2020-Feb-27 21:00 260 18 10.8 5.0 2.5
2020-Feb-27 20:00 260 12 10.8 5.2 2.5
2020-Feb-27 19:00 260 13 10.8 5.1 2.4
2020-Feb-27 18:00 260 13 10.8 4.4 2.6
2020-Feb-27 17:00 260 9 10.8 4.6 2.4
2020-Feb-27 16:00 260 9 10.8 4.4 2.6
2020-Feb-27 15:00 260 8 10.8 3.9 2.6
2020-Feb-27 14:00 260 7 10.8 3.0 2.7
2020-Feb-27 13:00 250 20 10.8 3.3 2.5
2020-Feb-27 12:00 240 22 10.8 4.8 2.5
2020-Feb-27 11:00 210 20 10.8 4.5 2.3
2020-Feb-27 10:00 240 15 10.8 4.6 2.4
2020-Feb-27 09:00 240 11 10.8 3.5 2.6
2020-Feb-27 08:00 240 20 10.8 3.5 2.5
2020-Feb-27 07:00 210 9 10.8 3.7 2.4
2020-Feb-27 06:00 240 12 10.8 3.0 2.7
2020-Feb-27 05:00 250 13 10.8 2.5 2.7
2020-Feb-27 04:00 240 14 10.8 3.5 2.5
2020-Feb-27 03:00 250 20 10.8 3.5 2.5
2020-Feb-27 02:00 260 14 10.8 4.1 2.6
2020-Feb-27 01:00 260 6 10.8 3.5 2.4
2020-Feb-27 00:00 260 13 10.8 3.7 2.2
2020-Feb-26 23:00 260 15 10.8 3.6 2.1
2020-Feb-26 22:00 260 13 10.8 4.0 2.0
2020-Feb-26 21:00 270 13 5.4 3.7 2.0
2020-Feb-26 20:00 260 12 10.8 3.9 1.8
2020-Feb-26 19:00 260 9 10.8 4.2 1.7
2020-Feb-26 18:00 260 8 10.8 4.1 1.6
2020-Feb-26 17:00 280 5 10.8 3.7 1.4
2020-Feb-26 16:00 300 17 5.4 3.2 1.3
2020-Feb-26 15:00 280 17 2.2 3.4 1.2
2020-Feb-26 14:00 280 12 10.8 4.0 1.1